Regional Weather Roundup
Issued by NWS

Home | Current Version | Previous Version | Text Only | Print | Product List | Glossary Off
Versions: 1 2 3 4 5 6 7 8 9 10 11 12 13 14 15 16 17 18 19 20 21 22 23 24 25 26 27 28 29 30 31 32 33 34 35 36 37 38 39 40 41 42 43 44 45 46 47 48 49 50

000
ASUS43 KDTX 010701
RWRMI
MICHIGAN HOURLY REGIONAL WEATHER ROUNDUP
NATIONAL WEATHER SERVICE DETROIT/PONTIAC MI
300 AM EDT WED OCT 01 2014

NOTE: "FAIR" INDICATES FEW OR NO CLOUDS BELOW 12,000 FEET WITH NO
SIGNIFICANT WEATHER AND/OR OBSTRUCTION TO VISIBILITY.

MIZ047>049-052>055-059>063-066>070-074>076-081>083-010800-
SOUTHEAST LOWER MICHIGAN

CITY           SKY/WX    TMP DP  RH WIND       PRES   REMARKS
ADRIAN         MOCLDY    47  45  93 NE5       30.04S
ALMA           CLOUDY    51  49  95 N3        30.06F FOG
ANN ARBOR      CLOUDY    52  48  86 NE7       30.02F
BAD AXE        CLOUDY    56  56 100 NE3       30.04S FOG
CARO           LGT RAIN  55  55  97 N3        30.04S VSB 1
DETROIT CITY   CLOUDY    55  52  89 NW3       30.05
DETROIT        CLOUDY    53  49  86 W7        30.03F
FLINT          CLOUDY    54  51  90 CALM      30.05S
GROSSE ILE     CLOUDY    54  50  87 N5        30.02S
HILLSDALE      CLOUDY    51  51  99 CALM      30.03F
HOWELL         CLOUDY    50  50  98 CALM      30.04S FOG

CITY           SKY/WX    TMP DP  RH WIND       PRES   REMARKS
JACKSON        CLOUDY    51  49  92 CALM      30.04S
LAMBERTVILLE   CLEAR     45  43  93 CALM      30.04S
LANSING        CLOUDY    51  49  92 CALM      30.05F FOG
LAPEER         FOG       53  52  96 CALM      30.04S VSB 1/2
MASON          CLOUDY    50  49  97 CALM      30.05S FOG
MONROE         PTCLDY    46  45  93 CALM      30.03R FOG
MT. CLEMENS    CLOUDY    53  53 100 NW6       30.00F
PONTIAC        CLOUDY    52  50  93 NW6       30.03S FOG
PORT HOPE        N/A     57  56  96 NE9       30.03R
PORT HURON     FOG       54  54 100 CALM      30.02S VSB 1/2
TRI CITIES     CLOUDY    52  50  93 N8        30.05F
TROY           CLOUDY    56  52  87 CALM      30.04F
SAGINAW HB     CLOUDY    54  54 100 NW5       30.04S FOG
$$
MIZ043>046-050>051-056>058-064>065-071>073-077>080-010800-
SOUTHWEST LOWER MICHIGAN

CITY           SKY/WX    TMP DP  RH WIND       PRES   REMARKS
BATTLE CREEK   CLOUDY    53  46  77 CALM      30.05S
BIG RAPIDS     CLOUDY    50  50 100 SE5       30.06S FOG
COLDWATER      CLOUDY    53  50  89 CALM      30.04S
FREMONT        CLOUDY    52  50  92 SE6       30.05S
GRAND RAPIDS   CLOUDY    53  50  89 CALM      30.06R
IONIA          CLOUDY    51  50  96 NE3       30.05S FOG
KALAMAZOO      CLOUDY    53  48  83 VRB5      30.05S
LUDINGTON      CLOUDY    52  50  93 CALM      30.06S
MARSHALL       CLOUDY    50  48  92 CALM      30.04S
MOUNT PLEASANT CLOUDY    50  49  94 CALM      30.05F
MUSKEGON       CLOUDY    54  48  80 E8        30.05F
SOUTH HAVEN    CLOUDY    54  51  91 E3        30.04S
$$
MIZ016>042-010800-
NORTHERN LOWER MICHIGAN

CITY           SKY/WX    TMP DP  RH WIND       PRES   REMARKS
ALPENA         CLOUDY    53  51  93 NE6       30.07S
BEAVER ISLAND  CLOUDY    55  51  87 SE7       30.07S
BELLAIRE       CLOUDY    51  49  92 CALM      30.07S
CADILLAC       CLOUDY    48  48 100 CALM      30.05S
CHARLEVOIX     CLOUDY    52  51  95 SE6       30.09F
FRANKFORT      CLOUDY    52  49  89 CALM      30.06F
GAYLORD        CLOUDY    50  49  96 VRB6      30.06F FOG
GRAYLING       FOG       51  51 100 CALM      30.07S VSB 1
HARBOR SPRINGS CLOUDY    51  49  93 CALM      30.07F FOG
HOUGHTON LAKE  CLOUDY    49  48  97 CALM      30.07S
OSCODA         CLOUDY    54  54  99 NE7       30.05R FOG
PELLSTON       CLOUDY    51  50  96 CALM      30.08S
ROGERS CITY    CLOUDY    52  52 100 E8        30.08F
TRAVERSE CITY  CLOUDY    52  48  86 CALM      30.06S
$$
MIZ007>008-015-010800-
EASTERN UPPER MICHIGAN

CITY           SKY/WX    TMP DP  RH WIND       PRES   REMARKS
MACKINAC ISLAN CLOUDY    54  52  93 SE5       30.07S
NEWBERRY       CLOUDY    50  48  93 SE3       30.07S
S. S. MARIE    CLOUDY    52  47  83 SE3       30.08R
$$
MIZ004>006-011>014-085-010800-
CENTRAL UPPER MICHIGAN

CITY           SKY/WX    TMP DP  RH WIND       PRES   REMARKS
MANISTIQUE     CLOUDY    55  50  84 SE6       30.06S
SAWYER-GWINN   CLOUDY    46  45  95 S3        30.04F FOG
$$
MIZ001>003-009>011-084-010800-
WESTERN UPPER MICHIGAN

CITY           SKY/WX    TMP DP  RH WIND       PRES   REMARKS
IRON MOUNTAIN  CLOUDY    47  46  97 S3        30.03F FOG
HOUGHTON       CLOUDY    44  42  93 SE8       30.00F
COPPER HARBOR    N/A     50  45  83 SW9       30.01F
$$

ABBREVIATIONS USED IN REMARKS
   TC - TEMPERATURE IN CELSIUS
  WCI - WIND CHILL INDEX
   HX - HEAT INDEX
  VSB - VISIBILITY



USA.gov is the U.S. government's official web portal to all federal, state and local government web resources and services.